Tracking 30696 objects as of 15-Jun-2025
HD Live streaming from Space Station
objects crossing your sky now

STARLINK-32845

Track STARLINK-32845 now!
10-day predictions
STARLINK-32845 is classified as:


NORAD ID: 62815
Int'l Code: 2025-018K
Perigee: 481.6 km
Apogee: 483.1 km
Inclination: 53.2 °
Period: 94.1 minutes
Semi major axis: 6853 km
RCS: Unknown
Launch date: January 24, 2025
Source: United States (US)
Launch site: AIR FORCE WESTERN TEST RANGE (AFWTR)
Your satellite tracking list
Your tracking list is empty




NASA's NSSDC Master Catalog

Two Line Element Set (TLE):
1 62815U 25018K   25166.23953624  .00026584  00000-0  90636-3 0  9994
2 62815  53.1629 111.6636 0001043  76.3710 283.7407 15.30204328 22863
Source of the keplerian elements: AFSPC